EHI
0 0 0 0 0 0 0 0 0 0 0 1 2 4 5 5 6 8 9 9 8 6 6 9 10 12 20 33 41 41 38 36 33 27 22 20 18 16 17 19 17 11 8 8
0 0 0 0 0 0 0 0 0 0 0 0 1 3 4 4 4 6 8 10 10 10 11 15 17 18 27 39 43 41 41 39 35 30 24 21 19 17 17 19 18 14 10 9
0 0 0 0 0 0 0 0 0 0 0 1 1 2 2 1 1 4 7 9 11 13 16 21 27 29 34 43 45 43 43 42 37 32 24 20 20 18 17 18 18 16 13 12
0 0 0 0 0 0 0 0 0 0 0 1 1 1 0 0 0 2 5 7 10 14 18 23 30 34 36 41 45 47 48 46 40 33 27 22 20 19 17 17 18 17 15 14
0 0 0 0 0 0 0 0 0 0 0 0 0 0 0 0 0 2 5 6 9 14 19 22 28 34 36 36 42 50 55 52 44 37 33 29 25 21 18 18 19 18 17 17
0 0 0 0 0 0 0 0 0 0 0 0 0 0 0 0 1 2 4 5 7 11 17 20 24 31 34 33 38 49 58 56 48 41 37 33 30 26 22 20 20 19 17 17
0 0 0 0 0 0 0 0 0 0 0 0 0 0 1 1 1 2 2 3 5 7 11 15 21 27 31 34 39 49 57 55 50 45 40 36 32 28 26 25 22 17 13 12
0 0 0 0 0 0 0 0 0 0 0 0 0 1 2 2 2 2 1 1 2 5 8 11 19 25 28 34 42 51 56 56 51 47 44 40 34 29 27 25 21 15 9 7
0 0 0 0 0 0 0 0 0 0 0 0 0 1 2 2 1 1 1 2 4 6 9 12 19 27 30 36 45 53 57 58 54 50 47 42 37 32 29 25 20 14 11 7
0 0 0 0 0 0 0 0 0 0 0 0 0 0 1 2 2 2 4 6 8 9 11 14 21 31 36 38 45 53 57 58 55 50 45 40 36 34 32 27 22 20 17 14
0 0 0 0 0 0 0 0 0 0 0 0 0 0 2 3 3 4 6 8 9 10 12 16 22 32 39 41 45 51 56 57 54 50 45 40 35 32 29 27 26 27 26 24
0 0 0 0 0 0 0 0 0 0 0 0 0 1 3 4 4 4 6 8 9 11 14 18 25 35 43 45 47 51 55 54 51 48 46 43 39 32 27 27 30 31 30 30
0 0 0 0 0 0 0 0 0 0 0 0 0 2 5 6 5 5 6 8 11 14 17 24 34 44 48 49 51 52 52 49 47 46 45 45 43 37 32 32 33 32 31 30
0 0 0 0 0 0 0 0 0 0 0 0 0 2 6 9 8 8 10 11 14 17 21 31 45 53 52 52 52 50 46 44 45 47 46 45 44 41 37 36 35 33 31 30
0 0 0 0 0 0 0 0 0 0 0 0 0 3 7 10 9 10 13 14 14 18 24 37 52 58 55 52 49 44 42 42 45 48 48 45 43 41 38 35 33 32 31 29
0 0 0 0 0 0 0 0 0 0 0 0 1 3 6 8 9 11 14 15 15 19 26 37 50 57 56 51 45 40 40 42 44 46 45 43 41 39 36 34 31 30 28 26
0 0 0 0 0 0 0 0 0 0 0 0 1 3 5 6 7 10 14 17 19 24 29 35 43 50 51 47 43 38 35 36 39 41 41 40 39 37 35 33 31 29 27 26
0 0 0 0 0 0 0 0 0 0 1 2 3 4 5 6 8 11 16 21 26 31 34 36 39 42 43 43 40 36 32 30 32 35 37 37 37 36 34 32 31 29 29 29
0 0 1 0 0 0 0 0 0 1 2 3 4 6 8 9 10 13 19 25 30 35 37 37 36 37 39 40 40 36 31 29 31 34 34 34 35 35 33 33 32 32 30 30
0 0 0 0 0 0 0 0 0 1 2 3 4 8 12 12 13 17 22 26 29 33 36 36 35 38 43 45 45 41 34 33 36 37 37 37 37 35 33 34 35 33 30 29
0 0 0 0 0 0 0 0 2 5 6 4 4 10 15 16 16 20 24 24 25 29 34 37 40 45 51 52 52 48 42 40 42 42 39 39 36 31 29 33 35 33 29 27
0 0 0 0 1 2 3 4 6 11 11 7 6 11 16 16 18 22 24 24 24 26 31 35 40 47 52 53 52 50 47 46 46 44 42 39 34 27 26 31 34 32 29 26
1 1 2 3 5 7 9 8 9 11 11 9 8 11 14 15 18 23 26 26 25 26 29 32 37 42 46 47 48 48 47 46 45 45 43 38 30 24 25 29 31 30 27 23
2 3 5 7 9 10 11 9 8 8 9 10 11 12 12 14 20 27 30 28 28 29 30 33 36 41 44 45 45 47 46 44 43 43 41 33 24 20 22 24 25 24 22 18
1 2 5 8 9 10 10 9 8 8 9 12 13 13 13 16 23 29 32 31 30 31 33 36 38 41 43 44 44 45 45 42 38 36 33 26 19 17 18 18 16 13 12 11
0 1 4 8 9 10 10 10 9 9 11 13 13 12 14 18 24 28 31 33 34 34 35 37 38 39 41 43 43 43 43 40 35 31 27 21 18 18 17 14 9 5 4 4
Wind_Speed
8 7 5 5 4 5 5 4 1 1 3 1 3 6 9 9 8 9 10 9 8 8 9 9 7 7 7 6 5 4 3 3 2 1 1 1 1 1 1 2 2 2 1 1
7 7 6 6 5 6 5 4 3 1 1 2 1 2 7 8 8 8 9 9 9 9 9 9 9 7 7 6 6 5 4 3 3 2 1 1 1 1 2 2 3 2 1 0
9 6 5 6 6 6 6 4 4 4 2 3 2 3 6 8 8 7 8 10 10 11 10 10 9 8 8 8 7 5 5 4 3 2 2 1 1 0 1 2 2 2 1 0
9 9 6 8 8 6 5 5 6 6 5 4 4 3 5 8 9 9 8 9 9 10 10 11 11 9 9 9 8 6 6 5 4 3 2 2 2 1 1 1 1 2 1 1
9 9 8 9 7 6 5 6 7 7 7 7 7 3 3 5 7 8 9 9 9 9 10 11 11 10 9 9 9 8 6 5 4 3 2 2 1 1 1 1 1 1 2 1
12 11 9 8 7 7 7 8 9 9 7 7 7 4 3 5 7 8 9 9 10 9 9 9 10 10 10 9 8 9 7 5 5 4 3 2 1 1 1 1 1 1 2 1
13 12 10 9 10 9 9 7 6 4 5 4 3 3 3 5 7 8 7 8 8 9 8 9 9 10 10 9 8 9 9 7 6 5 4 3 2 2 2 1 1 1 1 1
11 10 10 9 10 8 8 7 7 6 6 4 2 1 2 5 6 7 8 7 7 8 8 8 9 10 9 10 9 9 9 8 7 6 4 4 3 3 2 1 1 1 0 1
8 8 7 8 8 9 9 7 9 9 9 8 2 1 3 6 6 6 7 8 6 6 7 7 9 10 10 10 10 10 10 8 7 6 5 4 3 2 2 2 1 1 0 1
9 9 9 7 8 10 10 8 8 6 6 6 4 4 2 4 6 7 7 6 6 6 6 6 7 8 8 9 10 10 10 9 8 7 6 5 4 3 2 2 1 1 1 0
9 9 11 9 9 9 10 10 8 7 6 7 5 3 2 4 4 5 6 6 5 5 5 6 6 7 8 8 9 9 9 9 8 7 6 4 5 4 3 2 2 1 1 1
8 9 10 10 8 9 11 11 10 8 6 7 6 4 1 1 3 4 4 5 5 5 4 4 6 7 7 7 7 7 7 8 7 7 6 5 4 4 4 4 3 3 3 2
4 6 8 10 9 9 10 10 11 10 9 7 6 4 1 0 3 4 4 4 5 5 5 4 4 5 6 6 6 6 6 7 7 6 6 5 5 4 4 4 4 3 3 3
5 8 10 12 10 8 9 10 11 10 8 8 7 5 2 1 2 2 3 3 5 5 4 5 5 4 5 5 5 5 5 6 6 5 6 5 5 4 3 3 3 3 3 3
8 10 12 14 14 13 12 13 13 12 10 10 10 6 2 1 1 2 3 2 2 5 5 6 5 4 4 4 3 3 3 3 4 4 4 4 4 4 3 3 3 3 3 3
7 9 11 13 14 14 14 14 14 13 12 11 11 5 1 1 3 2 2 1 1 2 4 5 5 4 4 4 3 3 3 3 3 4 4 3 4 4 3 3 3 3 3 2
8 8 10 12 13 13 15 13 11 10 9 8 7 4 3 3 2 2 3 2 2 2 3 4 4 2 2 2 2 3 3 3 3 3 4 4 4 4 3 3 3 3 3 3
8 7 7 11 11 15 10 9 9 9 7 7 4 4 4 4 2 2 3 3 3 2 2 3 3 3 4 4 4 3 4 4 4 3 3 3 3 3 3 3 3 3 3 3
9 7 8 10 13 14 11 8 10 9 7 5 4 4 4 4 3 3 6 6 4 4 3 1 1 3 3 4 4 3 3 3 3 3 3 3 3 3 3 3 3 3 3 3
10 8 9 11 13 13 7 5 7 8 6 4 5 4 5 5 4 2 5 5 4 4 3 2 1 0 2 3 3 3 3 3 3 3 2 1 2 3 3 4 4 3 3 3
10 10 12 13 14 9 6 6 6 7 3 4 4 3 3 3 3 4 4 4 4 4 3 3 3 2 1 1 2 3 2 2 2 1 1 2 2 4 5 4 3 3 3 4
10 10 11 11 13 8 4 5 3 3 5 4 4 4 3 3 3 3 3 4 3 3 3 3 3 2 2 1 1 2 2 1 1 1 1 2 3 4 3 3 3 3 4 5
8 6 6 5 4 2 5 3 3 3 4 4 5 5 4 3 4 3 2 2 3 3 3 3 2 1 1 1 0 0 0 0 0 1 1 2 2 3 3 3 4 4 4 4
4 5 6 5 3 3 2 3 4 5 5 4 5 5 5 3 3 2 2 2 2 2 3 3 2 1 1 1 2 1 0 0 1 1 2 2 2 2 2 2 3 3 3 3
6 6 7 7 5 5 4 4 4 4 5 4 3 4 5 3 2 2 1 1 2 2 2 2 1 1 1 1 1 1 1 1 1 2 2 2 3 3 2 1 1 2 1 2
7 7 7 6 4 6 6 6 6 5 5 5 4 4 4 3 2 2 1 1 1 1 2 1 1 1 1 1 1 2 2 1 1 2 2 2 3 2 1 1 1 3 2 1
Wind_Direction
238 247 255 263 276 284 293 305 330 81 114 161 149 148 154 163 172 160 156 160 164 169 162 157 157 153 142 137 136 137 133 127 131 141 147 154 164 159 142 133 130 123 104 98
246 249 254 264 272 276 280 302 306 288 111 278 183 152 147 168 172 162 162 165 167 167 160 157 161 161 150 147 147 144 145 151 152 145 165 182 176 164 132 104 116 118 118 165
239 255 257 268 265 273 290 297 311 311 296 259 241 192 164 171 168 163 167 167 170 168 165 163 165 165 162 159 161 164 154 153 159 171 164 154 145 159 109 113 123 127 133 111
246 249 247 258 261 260 288 307 300 293 284 277 261 234 186 180 170 168 179 175 173 167 165 165 167 167 169 167 165 157 155 158 161 178 177 183 157 136 131 127 132 147 133 93
250 247 243 253 266 275 285 295 297 294 285 279 264 232 180 174 172 168 180 178 172 170 168 168 169 168 172 170 164 158 154 157 160 174 174 178 166 153 128 119 142 164 136 105
258 255 250 256 261 266 273 274 275 269 270 265 266 254 166 167 169 176 178 170 174 170 169 164 164 162 168 168 164 158 151 158 163 170 170 160 156 141 121 142 167 191 138 114
250 242 237 243 251 248 253 268 277 270 259 253 272 291 125 136 153 161 158 163 167 164 164 161 160 163 168 169 165 154 154 164 169 170 170 164 175 178 170 196 190 209 144 128
248 243 230 228 243 259 261 264 276 291 293 293 274 261 133 119 123 136 146 151 157 162 160 164 165 165 169 168 163 158 157 164 167 168 170 170 179 196 191 200 233 185 71 101
264 261 242 239 240 248 266 271 278 282 280 287 294 281 150 140 133 138 147 144 154 159 157 163 166 166 170 169 167 166 161 162 166 170 170 172 174 191 182 170 213 205 142 168
260 279 271 241 239 241 246 261 277 278 294 294 278 260 169 135 147 147 147 148 149 151 152 155 161 162 163 166 165 164 165 164 167 171 180 175 175 181 186 195 182 160 137 82
255 262 268 253 242 256 249 247 259 278 283 281 294 306 98 139 143 150 146 137 132 140 147 165 158 155 155 159 160 161 161 163 168 175 175 174 177 180 191 192 188 181 182 183
250 258 269 273 271 262 266 269 267 268 278 284 288 291 16 139 139 133 126 125 139 141 148 151 153 152 153 155 154 154 160 165 169 172 169 178 178 182 191 193 194 192 194 200
297 272 269 267 261 245 253 259 263 266 268 268 269 273 219 131 58 92 101 118 126 129 134 140 131 138 145 151 149 154 164 168 172 170 172 176 186 191 198 193 189 192 198 203
275 258 260 263 269 276 265 266 264 261 264 272 271 272 259 74 55 68 91 115 131 134 134 122 110 117 124 131 141 157 167 167 164 167 177 179 189 191 198 191 190 192 206 209
260 259 260 264 270 274 275 275 272 267 264 271 275 273 267 194 99 52 72 93 128 137 127 119 117 113 124 129 132 151 157 156 159 166 176 179 186 185 180 185 199 193 208 219
261 276 279 271 269 268 270 264 266 266 266 262 273 277 219 271 82 81 78 86 86 108 118 120 120 127 138 138 145 149 160 161 169 183 183 179 186 189 189 195 192 205 220 229
261 264 271 272 277 277 266 267 263 263 270 276 279 305 5 349 38 93 106 87 51 58 98 118 118 132 142 147 141 172 172 165 180 194 186 185 193 198 198 207 196 213 227 233
269 276 270 269 270 263 267 279 282 277 280 288 292 318 332 341 11 61 72 69 51 44 68 112 144 163 165 160 175 199 183 179 189 195 198 194 195 202 194 202 209 217 226 238
252 257 264 265 260 259 260 276 283 277 280 308 310 317 338 346 343 63 59 55 44 35 35 70 165 164 159 170 173 178 195 192 197 201 209 214 204 205 210 218 224 227 231 241
228 231 249 259 263 264 266 279 290 283 263 320 322 339 2 343 305 32 46 38 32 30 24 3 6 173 155 160 164 184 213 209 212 215 216 222 220 222 226 225 228 235 235 242
224 223 236 251 259 264 290 295 285 271 300 346 341 355 358 357 348 11 30 31 29 22 17 9 12 27 51 125 159 201 221 233 225 213 216 227 235 238 231 226 220 227 233 241
241 239 235 246 254 255 323 320 335 7 359 5 360 349 349 354 360 26 34 31 21 8 16 14 13 31 36 57 173 204 223 251 249 219 238 238 239 252 244 225 228 232 231 238
247 258 263 259 259 0 355 357 22 11 344 344 345 348 336 332 351 15 23 14 8 4 4 356 0 51 46 359 351 230 192 165 242 215 253 262 265 267 251 242 240 235 231 238
267 300 282 278 267 290 329 353 1 352 338 336 341 343 322 322 333 350 2 4 358 353 352 350 353 44 42 12 3 8 17 190 240 239 255 266 262 256 256 248 244 240 248 253
294 290 287 286 297 303 302 318 330 327 319 324 334 312 300 309 322 322 329 349 352 346 345 343 347 22 28 43 12 348 353 302 253 250 261 275 272 256 245 259 280 262 255 259
277 280 275 282 311 307 320 331 322 319 325 323 312 307 310 315 314 298 290 319 325 324 330 334 5 24 25 23 354 348 0 320 255 250 252 262 269 268 267 253 310 351 313 261